Location: Buckenweiler
(49.0667°N, 10.2500°E)
Time: 10:14:30
(UTC+00:00)

USA 307 - Pass Details

Date: 18 January 2026
Orbit: 495 x 502 km, 54.0° (Epoch: 10 March)

Event Time Altitude Azimuth Distance (km) Brightness Sun altitude
Exits shadow 04:32:58 58° 85° (E) 590 3.1 -24.5°
Drops below altitude 10° 04:36:18 10° 110° (ESE) 1,691 6.3 -23.9°
Sets 04:38:27 0° 112° (ESE) 2,521 7.4 -23.6°
